Location: Brunnen
(48.6541°N, 10.9920°E)
Time: 03:32:06
(UTC+00:00)

Cosmos 1707 - Pass Details

Date: 01 June 2020
Orbit: 515 x 531 km, 82.5° (Epoch: 09 July)

Event Time Altitude Azimuth Distance (km) Brightness Sun altitude
Exits shadow 21:24:09 24° 122° (ESE) 1,135 3.9 -15.0°
Maximum altitude 21:25:22 28° 90° (E) 1,006 3.9 -15.1°
Drops below altitude 10° 21:28:45 10° 31° (NNE) 1,781 5.9 -15.3°
Sets 21:31:05 0° 20° (NNE) 2,673 7.1 -15.5°
